Location: Ergnies
(50.0854°N, 2.0375°E)
Time: 09:47:12
(UTC+00:00)

COSMO-SKYMED 1 - Pass Details

Date: 14 January 2026
Orbit: 577 x 579 km, 97.9° (Epoch: 18 February)

Event Time Altitude Azimuth Distance (km) Brightness Sun altitude
Rises 05:39:03 0° 179° (S) 2,788 6.1 -19.6°
Reaches altitude 10° 05:41:15 10° 185° (S) 1,894 5.1 -19.2°
Maximum altitude 05:45:14 48° 260° (W) 767 2.6 -18.6°
Enters shadow 05:46:02 42° 296° (WNW) 843 2.7 -18.5°
